sat.trackr.live / text

‹ back to catalog

STARLINK-32684

NORAD 62194 · 2024-229C

PAYLOAD ACTIVE UNKNOWN

§ Identity

Operator
Country
US
Launch date
2024-12-04
Launch site
AFETR
Launch vehicle
Mass (kg)
RCS (m²)

Purposes: comms

External: N2YO · Heavens-Above · Gunter

§ Orbital elements

Epoch: 2026-05-25T04:27:18.005184Z

Period
94.27 min
Inclination
43.0004°
Eccentricity
0.0001254
Mean motion
15.27603140 rev/d
Perigee alt
482.1 km
Apogee alt
483.8 km
Semi-major
6,861.1 km
B*
7.4204e-4
RAAN
198.4310°
Arg perigee
259.7069°
Mean anomaly
100.3642°
Rev number
8,344

§ Raw data

STARLINK-326841 62194U 24229C   26145.18562506  .00020228  00000+0  74204-3 0  99952 62194  43.0004 198.4310 0001254 259.7069 100.3642 15.27603140 83445

JSON: /api/v1/satellites/62194 · /tle

For live sub-satellite position, see the globe view (requires WebGL).

§ Visibility from observer

Set your observer location to see the next 7 days of passes ≥ 10°. The values pass through the URL so the page stays shareable.

No JS? Fill the form by hand. The geolocation button needs JavaScript.